Time,TemperatureF,DewpointF,PressureIn,WindDirection,WindDirectionDegrees,WindSpeedMPH,WindSpeedGustMPH,Humidity,HourlyPrecipIn,Conditions,Clouds,dailyrainin,SoftwareType,DateUTC
2013-03-05 00:00:00,39.2,25.6,29.87,NNW,338,1.0,2.0,58,0.00,,,0.00,Wunderground PWS Mod,2013-03-05 08:00:00,
2013-03-05 00:10:00,39.2,25.6,29.87,NNW,338,1.0,2.0,58,0.00,,,0.00,Wunderground PWS Mod,2013-03-05 08:10:00,
2013-03-05 00:20:00,39.1,25.1,29.86,NNW,338,1.0,2.0,57,0.00,,,0.00,Wunderground PWS Mod,2013-03-05 08:20:00,
2013-03-05 00:30:00,39.2,25.2,29.85,NNW,338,0.0,2.0,57,0.00,,,0.00,Wunderground PWS Mod,2013-03-05 08:30:00,
2013-03-05 00:40:00,39.2,26.1,29.85,NNW,338,0.0,1.0,59,0.00,,,0.00,Wunderground PWS Mod,2013-03-05 08:40:00,
2013-03-05 00:50:00,39.1,25.6,29.85,NNW,338,1.0,2.0,58,0.00,,,0.00,Wunderground PWS Mod,2013-03-05 08:50:00,
2013-03-05 01:00:00,39.1,25.6,29.85,NNW,338,0.0,1.0,58,0.00,,,0.00,Wunderground PWS Mod,2013-03-05 09:00:00,
2013-03-05 01:10:00,39.1,26.0,29.85,N/A,-737280,0.0,0.0,59,0.00,,,0.00,Wunderground PWS Mod,2013-03-05 09:10:00,
2013-03-05 01:20:00,38.9,26.2,29.85,NNW,338,0.0,2.0,60,0.00,,,0.00,Wunderground PWS Mod,2013-03-05 09:20:00,
2013-03-05 01:30:00,38.8,25.7,29.85,NNW,338,0.0,1.0,59,0.00,,,0.00,Wunderground PWS Mod,2013-03-05 09:30:00,
2013-03-05 01:40:00,38.6,26.3,29.85,N/A,-737280,0.0,0.0,61,0.00,,,0.00,Wunderground PWS Mod,2013-03-05 09:40:00,
2013-03-05 01:50:00,38.5,25.4,29.85,NNW,338,0.0,2.0,59,0.00,,,0.00,Wunderground PWS Mod,2013-03-05 09:50:00,
2013-03-05 02:00:00,38.3,25.2,29.85,N/A,-737280,0.0,0.0,59,0.00,,,0.00,Wunderground PWS Mod,2013-03-05 10:00:00,
2013-03-05 02:10:00,38.2,26.3,29.85,N/A,-737280,0.0,0.0,62,0.00,,,0.00,Wunderground PWS Mod,2013-03-05 10:10:00,
2013-03-05 02:20:00,38.2,25.9,29.85,N/A,-737280,0.0,0.0,61,0.00,,,0.00,Wunderground PWS Mod,2013-03-05 10:20:00,
2013-03-05 02:30:00,38.0,26.1,29.83,NNW,338,0.0,1.0,62,0.00,,,0.00,Wunderground PWS Mod,2013-03-05 10:30:00,
2013-03-05 02:40:00,38.0,25.7,29.83,NNW,338,1.0,2.0,61,0.00,,,0.00,Wunderground PWS Mod,2013-03-05 10:40:00,
2013-03-05 02:50:00,37.9,25.2,29.83,NNW,338,0.0,1.0,60,0.00,,,0.00,Wunderground PWS Mod,2013-03-05 10:50:00,
2013-03-05 03:00:00,37.9,25.2,29.82,NNW,338,1.0,2.0,60,0.00,,,0.00,Wunderground PWS Mod,2013-03-05 11:00:00,
2013-03-05 03:10:00,38.0,25.3,29.82,NNW,338,0.0,1.0,60,0.00,,,0.00,Wunderground PWS Mod,2013-03-05 11:10:00,
2013-03-05 03:20:00,38.0,25.7,29.81,NNW,338,0.0,2.0,61,0.00,,,0.00,Wunderground PWS Mod,2013-03-05 11:20:00,
2013-03-05 03:30:00,38.2,25.9,29.81,N/A,-737280,0.0,0.0,61,0.00,,,0.00,Wunderground PWS Mod,2013-03-05 11:30:00,
2013-03-05 03:40:00,38.3,26.8,29.81,NNW,338,1.0,2.0,63,0.00,,,0.00,Wunderground PWS Mod,2013-03-05 11:40:00,
2013-03-05 03:50:00,38.5,26.6,29.81,N/A,-737280,0.0,0.0,62,0.00,,,0.00,Wunderground PWS Mod,2013-03-05 11:50:00,
2013-03-05 04:00:00,38.6,27.1,29.80,N/A,-737280,0.0,0.0,63,0.00,,,0.00,Wunderground PWS Mod,2013-03-05 12:00:00,
2013-03-05 04:10:00,38.8,27.7,29.80,N/A,-737280,0.0,0.0,64,0.00,,,0.00,Wunderground PWS Mod,2013-03-05 12:10:00,
2013-03-05 04:20:00,38.9,27.4,29.81,N/A,-737280,0.0,0.0,63,0.00,,,0.00,Wunderground PWS Mod,2013-03-05 12:20:00,
2013-03-05 04:30:00,39.1,27.6,29.80,NNW,338,0.0,1.0,63,0.00,,,0.00,Wunderground PWS Mod,2013-03-05 12:30:00,
2013-03-05 04:40:00,39.2,28.0,29.80,N/A,-737280,0.0,0.0,64,0.00,,,0.00,Wunderground PWS Mod,2013-03-05 12:40:00,
2013-03-05 04:50:00,39.1,28.3,29.80,NNW,338,0.0,1.0,65,0.00,,,0.00,Wunderground PWS Mod,2013-03-05 12:50:00,
2013-03-05 05:00:00,38.9,27.4,29.79,NNW,338,0.0,1.0,63,0.00,,,0.00,Wunderground PWS Mod,2013-03-05 13:00:00,
2013-03-05 05:10:00,38.8,28.0,29.79,NNW,338,0.0,1.0,65,0.00,,,0.00,Wunderground PWS Mod,2013-03-05 13:10:00,
2013-03-05 05:20:00,38.6,25.9,29.79,NNW,338,0.0,1.0,60,0.00,,,0.00,Wunderground PWS Mod,2013-03-05 13:20:00,
2013-03-05 05:30:00,38.6,25.9,29.79,N/A,-737280,0.0,0.0,60,0.00,,,0.00,Wunderground PWS Mod,2013-03-05 13:30:00,
2013-03-05 05:40:00,38.6,26.7,29.79,NNW,338,0.0,1.0,62,0.00,,,0.00,Wunderground PWS Mod,2013-03-05 13:40:00,
2013-03-05 05:50:00,38.6,27.5,29.78,N/A,-737280,0.0,0.0,64,0.00,,,0.00,Wunderground PWS Mod,2013-03-05 13:50:00,
2013-03-05 06:00:00,38.6,26.7,29.77,NNW,338,0.0,2.0,62,0.00,,,0.00,Wunderground PWS Mod,2013-03-05 14:00:00,
2013-03-05 06:10:00,38.8,27.3,29.77,N/A,-737280,0.0,0.0,63,0.00,,,0.00,Wunderground PWS Mod,2013-03-05 14:10:00,
2013-03-05 06:20:00,38.8,26.9,29.77,NNW,338,1.0,2.0,62,0.00,,,0.00,Wunderground PWS Mod,2013-03-05 14:20:00,
2013-03-05 06:30:00,38.8,26.9,29.76,NNW,338,1.0,2.0,62,0.00,,,0.00,Wunderground PWS Mod,2013-03-05 14:30:00,
2013-03-05 06:40:00,38.9,26.6,29.76,N/A,-737280,0.0,0.0,61,0.00,,,0.00,Wunderground PWS Mod,2013-03-05 14:40:00,
2013-03-05 06:50:00,39.2,27.7,29.76,NNW,338,0.0,1.0,63,0.00,,,0.00,Wunderground PWS Mod,2013-03-05 14:50:00,
2013-03-05 07:00:00,39.3,27.7,29.77,N/A,-737280,0.0,0.0,63,0.00,,,0.00,Wunderground PWS Mod,2013-03-05 15:00:00,
2013-03-05 07:10:00,39.5,27.9,29.77,N/A,-737280,0.0,0.0,63,0.00,,,0.00,Wunderground PWS Mod,2013-03-05 15:10:00,
2013-03-05 07:20:00,39.6,28.4,29.77,N/A,-737280,0.0,0.0,64,0.00,,,0.00,Wunderground PWS Mod,2013-03-05 15:20:00,
2013-03-05 07:30:00,39.8,28.2,29.78,N/A,-737280,0.0,0.0,63,0.00,,,0.00,Wunderground PWS Mod,2013-03-05 15:30:00,
2013-03-05 08:00:00,40.5,26.9,29.78,ENE,68,0.0,1.0,58,0.00,,,0.00,Wunderground PWS Mod,2013-03-05 16:00:00,
2013-03-05 08:20:00,41.1,28.7,29.79,ENE,68,0.0,1.0,61,0.00,,,0.00,Wunderground PWS Mod,2013-03-05 16:20:00,
2013-03-05 08:30:00,41.2,29.2,29.79,ENE,68,0.0,1.0,62,0.00,,,0.00,Wunderground PWS Mod,2013-03-05 16:30:00,
2013-03-05 08:40:00,41.5,28.6,29.79,N/A,-737280,0.0,0.0,60,0.00,,,0.00,Wunderground PWS Mod,2013-03-05 16:40:00,
2013-03-05 08:50:00,41.6,29.9,29.79,N/A,-737280,0.0,0.0,63,0.00,,,0.00,Wunderground PWS Mod,2013-03-05 16:50:00,
2013-03-05 09:20:00,42.1,30.8,29.79,ENE,68,0.0,2.0,64,0.00,,,0.00,Wunderground PWS Mod,2013-03-05 17:20:00,
2013-03-05 09:30:00,42.2,30.9,29.80,ENE,68,0.0,2.0,64,0.00,,,0.00,Wunderground PWS Mod,2013-03-05 17:30:00,
2013-03-05 09:40:00,42.3,31.0,29.80,ENE,68,0.0,2.0,64,0.00,,,0.00,Wunderground PWS Mod,2013-03-05 17:40:00,
2013-03-05 09:50:00,42.5,31.9,29.80,ENE,68,0.0,2.0,66,0.00,,,0.00,Wunderground PWS Mod,2013-03-05 17:50:00,
2013-03-05 10:00:00,42.8,31.1,29.79,North,0,2.0,4.0,63,0.00,,,0.00,Wunderground PWS Mod,2013-03-05 18:00:00,
2013-03-05 10:10:00,42.8,31.1,29.79,North,0,1.0,3.0,63,0.00,,,0.00,Wunderground PWS Mod,2013-03-05 18:10:00,
2013-03-05 10:20:00,42.9,31.6,29.78,NNW,338,2.0,4.0,64,0.00,,,0.00,Wunderground PWS Mod,2013-03-05 18:20:00,
2013-03-05 10:30:00,43.1,32.1,29.79,NNW,338,1.0,3.0,65,0.00,,,0.00,Wunderground PWS Mod,2013-03-05 18:30:00,
2013-03-05 10:40:00,43.8,31.2,29.79,NNW,338,2.0,3.0,61,0.00,,,0.00,Wunderground PWS Mod,2013-03-05 18:40:00,
2013-03-05 10:50:00,44.2,31.2,29.78,NNW,338,2.0,4.0,60,0.00,,,0.00,Wunderground PWS Mod,2013-03-05 18:50:00,
2013-03-05 11:00:00,44.6,32.0,29.78,NW,315,2.0,4.0,61,0.00,,,0.00,Wunderground PWS Mod,2013-03-05 19:00:00,
2013-03-05 11:30:00,45.1,29.9,29.77,NNW,338,1.0,3.0,55,0.00,,,0.00,Wunderground PWS Mod,2013-03-05 19:30:00,
2013-03-05 11:40:00,45.5,28.4,29.77,NW,315,2.0,3.0,51,0.00,,,0.00,Wunderground PWS Mod,2013-03-05 19:40:00,
2013-03-05 11:50:00,46.1,29.0,29.76,NW,315,2.0,4.0,51,0.00,,,0.00,Wunderground PWS Mod,2013-03-05 19:50:00,
2013-03-05 12:00:00,46.2,28.6,29.76,NW,315,2.0,4.0,50,0.00,,,0.00,Wunderground PWS Mod,2013-03-05 20:00:00,
2013-03-05 12:10:00,46.5,30.3,29.76,NNW,338,1.0,2.0,53,0.00,,,0.00,Wunderground PWS Mod,2013-03-05 20:10:00,
2013-03-05 12:20:00,46.7,30.0,29.75,NNW,338,1.0,3.0,52,0.00,,,0.00,Wunderground PWS Mod,2013-03-05 20:20:00,
2013-03-05 12:30:00,46.8,30.6,29.75,NNW,338,1.0,2.0,53,0.00,,,0.00,Wunderground PWS Mod,2013-03-05 20:30:00,
2013-03-05 12:40:00,47.1,30.8,29.75,NNW,338,0.0,2.0,53,0.00,,,0.00,Wunderground PWS Mod,2013-03-05 20:40:00,
2013-03-05 12:50:00,47.6,31.3,29.75,NW,315,1.0,4.0,53,0.00,,,0.00,Wunderground PWS Mod,2013-03-05 20:50:00,
2013-03-05 13:00:00,47.7,33.2,29.75,North,0,0.0,1.0,57,0.00,,,0.00,Wunderground PWS Mod,2013-03-05 21:00:00,
2013-03-05 13:10:00,47.7,31.9,29.75,North,0,1.0,3.0,54,0.00,,,0.00,Wunderground PWS Mod,2013-03-05 21:10:00,
2013-03-05 13:20:00,47.6,30.8,29.74,SSW,203,1.0,2.0,52,0.00,,,0.00,Wunderground PWS Mod,2013-03-05 21:20:00,
2013-03-05 13:30:00,47.6,34.0,29.74,NW,315,1.0,2.0,59,0.00,,,0.00,Wunderground PWS Mod,2013-03-05 21:30:00,
2013-03-05 13:40:00,47.6,35.6,29.74,NNW,338,0.0,2.0,63,0.00,,,0.00,Wunderground PWS Mod,2013-03-05 21:40:00,
2013-03-05 13:50:00,47.4,36.2,29.74,NNW,338,0.0,4.0,65,0.00,,,0.00,Wunderground PWS Mod,2013-03-05 21:50:00,
2013-03-05 14:00:00,47.1,35.9,29.74,West,270,0.0,2.0,65,0.00,,,0.00,Wunderground PWS Mod,2013-03-05 22:00:00,
2013-03-05 14:10:00,46.7,35.9,29.74,SW,225,0.0,2.0,66,0.00,,,0.00,Wunderground PWS Mod,2013-03-05 22:10:00,
2013-03-05 14:20:00,46.2,35.8,29.73,SW,225,1.0,3.0,67,0.00,,,0.00,Wunderground PWS Mod,2013-03-05 22:20:00,
2013-03-05 14:30:00,46.2,36.6,29.74,WNW,293,0.0,1.0,69,0.00,,,0.00,Wunderground PWS Mod,2013-03-05 22:30:00,
2013-03-05 14:40:00,46.4,36.8,29.74,WNW,293,0.0,1.0,69,0.00,,,0.00,Wunderground PWS Mod,2013-03-05 22:40:00,
2013-03-05 14:50:00,46.4,36.4,29.74,South,180,1.0,2.0,68,0.00,,,0.00,Wunderground PWS Mod,2013-03-05 22:50:00,
2013-03-05 15:00:00,46.2,36.2,29.73,South,180,0.0,1.0,68,0.00,,,0.00,Wunderground PWS Mod,2013-03-05 23:00:00,
2013-03-05 15:10:00,46.2,36.2,29.73,South,180,0.0,2.0,68,0.00,,,0.00,Wunderground PWS Mod,2013-03-05 23:10:00,
2013-03-05 15:20:00,46.1,36.5,29.73,South,180,0.0,1.0,69,0.00,,,0.00,Wunderground PWS Mod,2013-03-05 23:20:00,
2013-03-05 15:30:00,46.0,36.4,29.73,South,180,0.0,1.0,69,0.00,,,0.00,Wunderground PWS Mod,2013-03-05 23:30:00,
2013-03-05 15:40:00,45.8,36.2,29.73,South,180,1.0,2.0,69,0.00,,,0.00,Wunderground PWS Mod,2013-03-05 23:40:00,
2013-03-05 15:50:00,45.7,36.5,29.73,South,180,0.0,2.0,70,0.00,,,0.00,Wunderground PWS Mod,2013-03-05 23:50:00,
2013-03-05 16:00:00,45.4,36.5,29.73,South,180,0.0,1.0,71,0.00,,,0.00,Wunderground PWS Mod,2013-03-06 00:00:00,
2013-03-05 16:10:00,45.2,36.0,29.73,N/A,-737280,0.0,0.0,70,0.00,,,0.00,Wunderground PWS Mod,2013-03-06 00:10:00,
2013-03-05 16:20:00,45.1,35.9,29.73,N/A,-737280,0.0,0.0,70,0.00,,,0.00,Wunderground PWS Mod,2013-03-06 00:20:00,
2013-03-05 16:30:00,44.9,35.7,29.73,N/A,-737280,0.0,0.0,70,0.00,,,0.00,Wunderground PWS Mod,2013-03-06 00:30:00,
2013-03-05 16:40:00,44.9,35.3,29.73,N/A,-737280,0.0,0.0,69,0.00,,,0.00,Wunderground PWS Mod,2013-03-06 00:40:00,
2013-03-05 16:50:00,44.6,35.4,29.73,South,180,0.0,1.0,70,0.00,,,0.00,Wunderground PWS Mod,2013-03-06 00:50:00,
2013-03-05 17:00:00,44.5,35.0,29.73,South,180,0.0,2.0,69,0.00,,,0.00,Wunderground PWS Mod,2013-03-06 01:00:00,
2013-03-05 17:10:00,44.3,35.5,29.73,N/A,-737280,0.0,0.0,71,0.00,,,0.00,Wunderground PWS Mod,2013-03-06 01:10:00,
2013-03-05 17:20:00,44.1,35.6,29.73,N/A,-737280,0.0,0.0,72,0.00,,,0.00,Wunderground PWS Mod,2013-03-06 01:20:00,
2013-03-05 17:30:00,43.9,35.8,29.73,N/A,-737280,0.0,0.0,73,0.00,,,0.00,Wunderground PWS Mod,2013-03-06 01:30:00,
2013-03-05 17:40:00,43.8,36.4,29.73,N/A,-737280,0.0,0.0,75,0.00,,,0.00,Wunderground PWS Mod,2013-03-06 01:40:00,
2013-03-05 17:50:00,43.6,36.2,29.73,N/A,-737280,0.0,0.0,75,0.00,,,0.00,Wunderground PWS Mod,2013-03-06 01:50:00,
2013-03-05 18:00:00,43.5,36.4,29.73,N/A,-737280,0.0,0.0,76,0.00,,,0.00,Wunderground PWS Mod,2013-03-06 02:00:00,
2013-03-05 18:10:00,43.3,36.2,29.73,N/A,-737280,0.0,0.0,76,0.00,,,0.00,Wunderground PWS Mod,2013-03-06 02:10:00,
2013-03-05 18:20:00,43.2,36.5,29.73,N/A,-737280,0.0,0.0,77,0.00,,,0.00,Wunderground PWS Mod,2013-03-06 02:20:00,
2013-03-05 18:30:00,43.1,36.7,29.73,N/A,-737280,0.0,0.0,78,0.00,,,0.00,Wunderground PWS Mod,2013-03-06 02:30:00,
2013-03-05 18:50:00,42.8,36.7,29.73,N/A,-737280,0.0,0.0,79,0.00,,,0.00,Wunderground PWS Mod,2013-03-06 02:50:00,
2013-03-05 19:00:00,42.5,36.4,29.73,N/A,-737280,0.0,0.0,79,0.00,,,0.00,Wunderground PWS Mod,2013-03-06 03:00:00,
2013-03-05 19:20:00,42.2,36.8,29.73,N/A,-737280,0.0,0.0,81,0.00,,,0.00,Wunderground PWS Mod,2013-03-06 03:20:00,
2013-03-05 19:30:00,41.9,36.8,29.73,N/A,-737280,0.0,0.0,82,0.00,,,0.00,Wunderground PWS Mod,2013-03-06 03:30:00,
2013-03-05 19:40:00,41.8,36.7,29.73,N/A,-737280,0.0,0.0,82,0.00,,,0.00,Wunderground PWS Mod,2013-03-06 03:40:00,
2013-03-05 19:50:00,41.6,36.5,29.73,South,180,0.0,1.0,82,0.00,,,0.00,Wunderground PWS Mod,2013-03-06 03:50:00,
2013-03-05 20:00:00,41.5,36.4,29.73,N/A,-737280,0.0,0.0,82,0.00,,,0.00,Wunderground PWS Mod,2013-03-06 04:00:00,
2013-03-05 20:10:00,41.3,36.2,29.73,N/A,-737280,0.0,0.0,82,0.00,,,0.00,Wunderground PWS Mod,2013-03-06 04:10:00,
2013-03-05 20:20:00,41.2,36.4,29.72,N/A,-737280,0.0,0.0,83,0.00,,,0.00,Wunderground PWS Mod,2013-03-06 04:20:00,
2013-03-05 20:30:00,41.1,36.3,29.72,South,180,0.0,1.0,83,0.00,,,0.00,Wunderground PWS Mod,2013-03-06 04:30:00,
2013-03-05 20:40:00,40.9,36.4,29.72,N/A,-737280,0.0,0.0,84,0.00,,,0.00,Wunderground PWS Mod,2013-03-06 04:40:00,
2013-03-05 20:50:00,40.8,36.3,29.72,South,180,0.0,1.0,84,0.00,,,0.00,Wunderground PWS Mod,2013-03-06 04:50:00,
2013-03-05 21:00:00,40.8,36.6,29.72,N/A,-737280,0.0,0.0,85,0.00,,,0.00,Wunderground PWS Mod,2013-03-06 05:00:00,
2013-03-05 21:10:00,40.6,36.4,29.72,N/A,-737280,0.0,0.0,85,0.00,,,0.00,Wunderground PWS Mod,2013-03-06 05:10:00,
2013-03-05 21:20:00,40.5,36.6,29.71,N/A,-737280,0.0,0.0,86,0.00,,,0.00,Wunderground PWS Mod,2013-03-06 05:20:00,
2013-03-05 21:30:00,40.5,36.6,29.71,N/A,-737280,0.0,0.0,86,0.00,,,0.00,Wunderground PWS Mod,2013-03-06 05:30:00,
2013-03-05 21:40:00,40.3,36.4,29.71,South,180,0.0,1.0,86,0.00,,,0.00,Wunderground PWS Mod,2013-03-06 05:40:00,
2013-03-05 21:50:00,40.2,36.6,29.71,South,180,0.0,1.0,87,0.00,,,0.00,Wunderground PWS Mod,2013-03-06 05:50:00,
2013-03-05 22:00:00,40.2,36.6,29.71,South,180,0.0,1.0,87,0.00,,,0.00,Wunderground PWS Mod,2013-03-06 06:00:00,
2013-03-05 22:10:00,40.1,36.8,29.71,South,180,0.0,1.0,88,0.00,,,0.00,Wunderground PWS Mod,2013-03-06 06:10:00,
2013-03-05 22:20:00,40.1,36.8,29.70,South,180,0.0,1.0,88,0.00,,,0.00,Wunderground PWS Mod,2013-03-06 06:20:00,
2013-03-05 22:30:00,39.9,36.6,29.70,South,180,0.0,2.0,88,0.00,,,0.00,Wunderground PWS Mod,2013-03-06 06:30:00,
2013-03-05 22:40:00,39.9,36.6,29.70,South,180,1.0,2.0,88,0.00,,,0.00,Wunderground PWS Mod,2013-03-06 06:40:00,
2013-03-05 22:50:00,39.8,36.8,29.69,South,180,0.0,2.0,89,0.00,,,0.00,Wunderground PWS Mod,2013-03-06 06:50:00,
2013-03-05 23:00:00,39.6,36.6,29.68,NNE,23,1.0,2.0,89,0.00,,,0.00,Wunderground PWS Mod,2013-03-06 07:00:00,
2013-03-05 23:10:00,39.6,36.6,29.68,North,0,0.0,2.0,89,0.00,,,0.00,Wunderground PWS Mod,2013-03-06 07:10:00,
2013-03-05 23:20:00,39.6,36.6,29.68,NNW,338,1.0,3.0,89,0.00,,,0.00,Wunderground PWS Mod,2013-03-06 07:20:00,
2013-03-05 23:30:00,39.6,36.6,29.68,NNW,338,0.0,2.0,89,0.00,,,0.00,Wunderground PWS Mod,2013-03-06 07:30:00,
2013-03-05 23:40:00,39.6,36.6,29.68,North,0,1.0,3.0,89,0.00,,,0.00,Wunderground PWS Mod,2013-03-06 07:40:00,
2013-03-05 23:50:00,39.5,36.5,29.66,North,0,0.0,2.0,89,0.00,,,0.00,Wunderground PWS Mod,2013-03-06 07:50:00,